Regional Weather Roundup
Issued by NWS Kansas City/Pleasant Hill, MO

Home | Current Version | Previous Version | Text Only | Print | Product List | Glossary On
Versions: 1 2 3 4 5 6 7 8 9 10 11 12 13 14 15 16 17 18 19 20 21 22 23 24 25 26 27 28 29 30 31 32 33 34 35 36 37 38 39 40 41 42 43 44 45 46 47 48 49 50
730
ASUS43 KEAX 230110
RWREAX

WEATHER ROUNDUP FOR EASTERN KANSAS AND NORTHWEST MISSOURI
NATIONAL WEATHER SERVICE KANSAS CITY/PLEASANT HILL MO
700 PM CST WED NOV 22 2017

KSZ040-057-103>105-MOZ028-029-037-043-230200-
...KANSAS CITY METROPOLITAN AREA...

CITY           SKY/WX    TMP DP  RH WIND       PRES   REMARKS
K.C. INTL      PTCLDY    32  18  56 S7        30.20S WCI  26
K.C. DOWNTOWN  CLEAR     41  16  36 S7        30.22S
LEES SUMMIT    CLOUDY    36  18  48 S10       30.21F WCI  28
OLATHE - IXD   CLEAR     33  19  56 S3        30.21F
OLATHE - OJC   CLEAR     33  19  56 S6        30.20F WCI  28
LAWRENCE       CLEAR     33  19  56 E5        30.22R WCI  29

$$

MOZ001>008-011>017-020>025-030>033-038>040-044>046-053-054-230200-
...NORTHERN AND CENTRAL MISSOURI...

CITY           SKY/WX    TMP DP  RH WIND       PRES   REMARKS
ST. JOSEPH     CLOUDY    32  17  54 S8        30.20S WCI  25
MOSBY          CLOUDY    36  16  44 CALM      30.22S
WARRENSBURG    CLOUDY    32  19  59 SE6       30.24F WCI  26
WHITEMAN AFB   CLOUDY    34  14  44 S3        30.20F
CLINTON        PTCLDY    32  19  59 CALM      30.27S
SEDALIA        PTCLDY    37  17  44 W3        30.27S
WARSAW         NOT AVBL
CHILLICOTHE      N/A     33  16  49 SE6       30.22F WCI  28
KIRKSVILLE     CLOUDY    31  20  63 S7        30.22F WCI  24

$$

MOZ041-047>049-056>058-063>065-088>090-097-230200-
...EASTERN AND SOUTHERN MISSOURI...

CITY           SKY/WX    TMP DP  RH WIND       PRES   REMARKS
ST. LOUIS INTL MOCLDY    35  19  52 SE3       30.27F
SPIRIT OF STL  PTCLDY    34  18  52 SE3       30.26F
COLUMBIA       CLOUDY    32  16  51 W5        30.26R WCI  27
JEFFERSON CITY CLOUDY    32  18  56 NW3       30.27R
ROLLA          PTCLDY    28  16  60 CALM      30.24F
OSAGE BEACH    CLOUDY    31  15  52 CALM      30.25S
SPRINGFIELD    CLOUDY    32  20  61 CALM      30.23R
BRANSON        PTCLDY    34  18  51 CALM      30.24F
JOPLIN         CLOUDY    36  22  56 CALM      30.25F
WEST PLAINS    CLOUDY    32  16  51 CALM      30.24F

$$

IAZ060-094-KSZ022-034>040-054-083-096-NEZ052-066-093-230200-
...KANSAS...SOUTHEAST NEBRASKA AND IOWA...

CITY           SKY/WX    TMP DP  RH WIND       PRES   REMARKS
TOPEKA         CLEAR     39  19  44 S3        30.20R
MANHATTAN      CLEAR     39  20  46 S6        30.18S WCI  35
EMPORIA        CLEAR     35  17  47 S8        30.20R WCI  29
CHANUTE        CLOUDY    33  21  61 S7        30.23F WCI  27
WICHITA        PTCLDY    37  21  52 S9        30.20F WCI  30
OMAHA          CLOUDY    38  18  44 S10       30.11F WCI  31
LINCOLN        CLOUDY    38  20  48 S7        30.12S WCI  33
FALLS CITY     CLOUDY    36  17  46 S8        30.17F WCI  30
LAMONI         CLEAR     33  16  49 S7        30.16F WCI  27
DES MOINES     MOCLDY    35  15  44 S9        30.14F WCI  28

$$





USA.gov is the U.S. government's official web portal to all federal, state and local government web resources and services.